DMSP 5D-2 F13 DEB, 40508

Orbit data source: Space-Track

DMSP 5D-2 F13 DEB, 40508 is space debris in SSO originally from a launch on Fri, 24 Mar 1995 UTC launched from the Air Force Western Test Range (AFWTR). Debris objects in space refer to the collection of defunct objects orbiting the Earth. Examples of debris include non-operational satellites, rocket bodies, and fragments generated from explosions, collisions, or faulty payload assembly.

Loading next visibility...
Identifier
40508, 1995-015CU
Orbit
SSO
Country
Flag of USUS
Related business
Manufacturer
Unknown
Mission
Spacecraft
Bus & Motor
Unknown
Mass
Unknown
Launch date (UTC)
1995-03-24 (31 years ago)
Launch vehicle
Unknown
Launch site
Air Force Western Test Range (AFWTR)
Object type
Payload
Rocket body
Debris
Shape & HBR
Unknown shape, 0.1 m
Radar Cross Section
Small (<0.1 m²)

Expand to show TLE details & history
Last TLE update: 17 hours ago

TLE from 17 hours ago
0 DMSP 5D-2 F13 DEB
1 40508U 95015CU  26126.01147549  .00002850  00000-0  13013-2 0  9990
2 40508  99.0236 146.0128 0044694 234.6076 125.0922 14.21844683571875
Epoch: 2026-05-06T00:16Z
TLE epoch observation values (Epoch: 2026-05-06T00:16:31.482Z)
Latitude
0.00003°
Longitude
-81.99647°
Altitude
840.62 km
Speed
7.423 km/s
True Right ascension
09h 44m 03s
True Declination
0° 00' 00"
Sunlit
Object was in daylight at epoch
Visualization orbit readout
Latitude
Unknown
Longitude
Unknown
Altitude
Unknown
Speed
Unknown
Apparent Right ascension
Unknown
Apparent Declination
Unknown
Sunlit
N/A
Visualization observer readout
Local Sidereal Time
00:57:04
Azimuth
Unknown
Elevation
Unknown
Doppler factor
Unknown
Orbital elements
Apogee altitude
848.447 km
Perigee altitude
784.138 km
Semi-major axis
7,194.429 km
Eccentricity
0.00447
Inclination
99.0236°
RAAN
146.0128°
Arg. of periapsis
234.6076°
True anomaly
125.50991°
Mean anomaly
125.0922°
Eccentric anomaly
125.30119°
Mean motion
3.55671 °/min
Orbital period
101.22 mins
BSTAR
0.0013013

Documentation

Showing up to 5 results
|